TimeCDT,TemperatureF,Dew PointF,Humidity,Sea Level PressureIn,VisibilityMPH,Wind Direction,Wind SpeedMPH,Gust SpeedMPH,PrecipitationIn,Events,Conditions,WindDirDegrees,DateUTC
12:15 AM,57.2,53.6,88,29.98,3.0,North,11.5,19.6,N/A,Rain,Heavy Rain,350,2013-09-15 05:15:00
12:35 AM,57.2,53.6,88,29.98,6.0,NNE,9.2,18.4,N/A,Rain,Light Rain,20,2013-09-15 05:35:00
12:55 AM,55.4,53.6,94,29.98,3.0,NE,6.9,-,0.27,Rain,Rain,50,2013-09-15 05:55:00
1:15 AM,55.4,53.6,94,29.96,9.0,ESE,8.1,-,N/A,,Overcast,110,2013-09-15 06:15:00
1:35 AM,55.4,53.6,94,29.96,10.0,ESE,6.9,-,N/A,,Overcast,110,2013-09-15 06:35:00
1:55 AM,55.4,53.6,94,29.95,3.0,East,9.2,-,0.06,Rain,Rain,80,2013-09-15 06:55:00
2:15 AM,55.4,53.6,94,29.93,10.0,ESE,12.7,-,N/A,,Mostly Cloudy,110,2013-09-15 07:15:00
2:35 AM,55.4,53.6,94,29.92,10.0,ESE,12.7,-,N/A,,Mostly Cloudy,120,2013-09-15 07:35:00
2:55 AM,55.4,53.6,94,29.91,9.0,SE,16.1,-,N/A,,Mostly Cloudy,130,2013-09-15 07:55:00
3:15 AM,55.4,53.6,94,29.90,10.0,SE,13.8,20.7,N/A,,Overcast,130,2013-09-15 08:15:00
3:35 AM,55.4,53.6,94,29.89,10.0,SE,12.7,-,N/A,,Overcast,130,2013-09-15 08:35:00
3:55 AM,55.4,51.8,88,29.89,10.0,SE,13.8,-,N/A,,Mostly Cloudy,140,2013-09-15 08:55:00
4:15 AM,55.4,51.8,88,29.88,10.0,SE,16.1,-,N/A,,Overcast,140,2013-09-15 09:15:00
4:35 AM,55.4,51.8,88,29.88,10.0,SE,12.7,19.6,N/A,,Overcast,140,2013-09-15 09:35:00
4:55 AM,55.4,51.8,88,29.87,10.0,SE,12.7,-,N/A,,Overcast,140,2013-09-15 09:55:00
5:15 AM,57.2,51.8,82,29.87,10.0,SE,11.5,-,N/A,,Overcast,140,2013-09-15 10:15:00
5:35 AM,57.2,53.6,88,29.87,10.0,SSE,10.4,-,N/A,,Overcast,150,2013-09-15 10:35:00
5:55 AM,57.2,53.6,88,29.87,10.0,SSE,10.4,-,N/A,,Overcast,150,2013-09-15 10:55:00
6:15 AM,57.2,53.6,88,29.88,10.0,SSE,10.4,-,N/A,,Overcast,160,2013-09-15 11:15:00
6:35 AM,57.2,53.6,88,29.89,10.0,SSE,9.2,-,N/A,,Overcast,160,2013-09-15 11:35:00
6:55 AM,57.2,53.6,88,29.89,10.0,SSE,6.9,-,N/A,,Overcast,150,2013-09-15 11:55:00
7:15 AM,57.2,53.6,88,29.90,10.0,SSE,4.6,-,N/A,,Overcast,160,2013-09-15 12:15:00
7:35 AM,57.2,53.6,88,29.90,10.0,ESE,3.5,-,N/A,,Overcast,120,2013-09-15 12:35:00
7:55 AM,57.2,53.6,88,29.90,10.0,ESE,4.6,-,N/A,,Overcast,120,2013-09-15 12:55:00
8:15 AM,57.2,53.6,88,29.91,10.0,Calm,Calm,-,N/A,,Overcast,0,2013-09-15 13:15:00
8:35 AM,57.2,53.6,88,29.92,10.0,North,5.8,-,N/A,,Overcast,10,2013-09-15 13:35:00
8:55 AM,57.2,53.6,88,29.94,0.8,NNE,8.1,-,0.20,Rain,Heavy Rain,20,2013-09-15 13:55:00
9:15 AM,55.4,55.4,100,29.93,2.0,NE,10.4,-,N/A,Rain,Heavy Rain,40,2013-09-15 14:15:00
9:35 AM,57.2,55.4,94,29.95,6.0,NE,8.1,-,N/A,Rain,Light Rain,40,2013-09-15 14:35:00
9:55 AM,57.2,55.4,94,29.96,10.0,NE,10.4,-,0.12,,Mostly Cloudy,40,2013-09-15 14:55:00
10:15 AM,57.2,55.4,94,29.97,10.0,NE,11.5,-,N/A,,Overcast,40,2013-09-15 15:15:00
10:35 AM,59.0,55.4,88,29.98,10.0,NNE,9.2,-,N/A,,Overcast,30,2013-09-15 15:35:00
10:55 AM,59.0,55.4,88,29.99,10.0,NNE,12.7,-,N/A,,Overcast,30,2013-09-15 15:55:00
11:15 AM,60.8,55.4,82,29.99,10.0,NNE,15.0,-,N/A,,Overcast,20,2013-09-15 16:15:00
11:35 AM,60.8,55.4,82,30.00,10.0,NNE,11.5,20.7,N/A,,Overcast,20,2013-09-15 16:35:00
11:55 AM,60.8,55.4,82,30.02,10.0,NNE,15.0,20.7,N/A,,Overcast,20,2013-09-15 16:55:00
12:15 PM,60.8,55.4,82,30.03,10.0,NNE,11.5,19.6,N/A,,Overcast,20,2013-09-15 17:15:00
12:35 PM,60.8,53.6,77,30.04,10.0,NNE,13.8,21.9,N/A,,Overcast,30,2013-09-15 17:35:00
12:55 PM,60.8,53.6,77,30.05,10.0,NNE,16.1,-,N/A,,Overcast,30,2013-09-15 17:55:00
1:15 PM,62.6,53.6,72,30.06,10.0,NNE,11.5,19.6,N/A,,Overcast,30,2013-09-15 18:15:00
1:35 PM,60.8,53.6,77,30.07,10.0,NNE,13.8,-,N/A,,Overcast,30,2013-09-15 18:35:00
1:55 PM,62.6,53.6,72,30.07,10.0,NNE,15.0,-,N/A,,Overcast,20,2013-09-15 18:55:00
2:15 PM,62.6,53.6,72,30.08,10.0,NNE,13.8,19.6,N/A,,Overcast,20,2013-09-15 19:15:00
2:35 PM,62.6,53.6,72,30.09,10.0,NNE,12.7,19.6,N/A,,Overcast,20,2013-09-15 19:35:00
2:55 PM,62.6,53.6,72,30.09,10.0,NNE,11.5,18.4,N/A,,Overcast,30,2013-09-15 19:55:00
3:15 PM,62.6,53.6,72,30.10,10.0,NNE,13.8,-,N/A,,Overcast,20,2013-09-15 20:15:00
3:35 PM,62.6,53.6,72,30.10,10.0,North,15.0,20.7,N/A,,Overcast,10,2013-09-15 20:35:00
3:55 PM,64.4,53.6,68,30.11,10.0,NNE,13.8,-,N/A,,Overcast,20,2013-09-15 20:55:00
4:15 PM,64.4,53.6,68,30.11,10.0,NNE,12.7,18.4,N/A,,Overcast,30,2013-09-15 21:15:00
4:35 PM,64.4,53.6,68,30.12,10.0,NNE,12.7,-,N/A,,Overcast,20,2013-09-15 21:35:00
4:55 PM,64.4,53.6,68,30.13,10.0,NNE,10.4,19.6,N/A,,Overcast,20,2013-09-15 21:55:00
5:15 PM,64.4,53.6,68,30.14,10.0,North,12.7,-,N/A,,Overcast,10,2013-09-15 22:15:00
5:35 PM,64.4,51.8,64,30.14,10.0,North,11.5,20.7,N/A,,Overcast,360,2013-09-15 22:35:00
5:55 PM,64.4,51.8,64,30.15,10.0,NNE,11.5,-,N/A,,Overcast,20,2013-09-15 22:55:00
6:15 PM,62.6,53.6,72,30.16,10.0,North,9.2,-,N/A,,Overcast,10,2013-09-15 23:15:00
6:35 PM,62.6,53.6,72,30.17,10.0,North,8.1,13.8,N/A,,Overcast,360,2013-09-15 23:35:00
6:55 PM,62.6,53.6,72,30.18,10.0,North,8.1,-,N/A,,Overcast,360,2013-09-15 23:55:00
7:15 PM,62.6,53.6,72,30.18,10.0,North,8.1,-,N/A,,Overcast,360,2013-09-16 00:15:00
7:35 PM,60.8,53.6,77,30.19,10.0,NNE,6.9,-,N/A,,Scattered Clouds,20,2013-09-16 00:35:00
7:55 PM,59.0,53.6,82,30.19,10.0,North,5.8,-,N/A,,Partly Cloudy,10,2013-09-16 00:55:00
8:15 PM,57.2,53.6,88,30.20,10.0,North,3.5,-,N/A,,Clear,10,2013-09-16 01:15:00
8:35 PM,55.4,53.6,94,30.21,10.0,North,5.8,-,N/A,,Clear,350,2013-09-16 01:35:00
8:55 PM,55.4,51.8,88,30.22,10.0,North,5.8,-,N/A,,Clear,350,2013-09-16 01:55:00
9:15 PM,55.4,51.8,88,30.23,10.0,NNW,6.9,-,N/A,,Clear,340,2013-09-16 02:15:00
9:35 PM,53.6,51.8,94,30.23,10.0,NNW,5.8,-,N/A,,Clear,340,2013-09-16 02:35:00
9:55 PM,55.4,51.8,88,30.24,10.0,NNW,5.8,-,N/A,,Scattered Clouds,340,2013-09-16 02:55:00
10:15 PM,55.4,53.6,94,30.24,10.0,NNW,5.8,-,N/A,,Overcast,340,2013-09-16 03:15:00
10:35 PM,55.4,53.6,94,30.25,10.0,NNW,6.9,-,N/A,,Overcast,340,2013-09-16 03:35:00
10:55 PM,57.2,53.6,88,30.25,10.0,North,6.9,-,N/A,,Mostly Cloudy,350,2013-09-16 03:55:00
11:15 PM,55.4,53.6,94,30.26,10.0,North,8.1,-,N/A,,Scattered Clouds,10,2013-09-16 04:15:00
11:35 PM,55.4,51.8,88,30.26,10.0,North,8.1,-,N/A,,Partly Cloudy,10,2013-09-16 04:35:00
11:55 PM,55.4,51.8,88,30.27,10.0,NNE,6.9,-,N/A,,Scattered Clouds,20,2013-09-16 04:55:00